Dewpoint
-4 -3 -3 -3 -3 -4 -5 -6 -7 -7 -8 -9 -9 -10 -10 -11 -11 -10 -10 -9 -9 -11 -12 -11 -8 -4 -1 1 2 2 3 4 6 7 9 11 12 12 12 12 12 11 11 12 12 11 11 11 9 9 8 8
-3 -3 -3 -3 -3 -4 -5 -6 -6 -7 -7 -8 -7 -7 -8 -8 -9 -10 -12 -11 -12 -12 -11 -10 -7 -5 -2 1 2 2 2 4 6 8 10 11 12 12 12 12 12 12 12 12 12 12 11 11 10 9 9 9
-3 -3 -3 -3 -4 -5 -6 -6 -6 -7 -8 -8 -7 -6 -5 -5 -5 -8 -11 -10 -12 -11 -9 -8 -5 -3 -1 2 3 3 3 4 7 8 10 11 11 12 12 12 12 12 12 12 12 12 12 12 11 10 10 10
-2 -3 -3 -4 -5 -5 -6 -7 -7 -7 -8 -8 -6 -5 -4 -3 -3 -6 -6 -4 -8 -9 -5 -4 -2 -1 1 2 3 4 4 5 7 8 9 10 11 12 12 12 12 12 12 12 12 12 12 12 11 10 10 10
-1 -3 -2 -3 -4 -4 -5 -7 -8 -8 -8 -8 -7 -5 -3 -3 -3 -4 -1 0 -4 -6 -2 -1 -0 1 1 3 4 5 5 6 8 9 9 10 11 11 11 12 12 12 12 12 12 11 11 12 11 11 10 10
-1 -2 -2 -3 -4 -4 -5 -7 -8 -8 -8 -9 -7 -5 -4 -3 -2 -2 0 2 -1 -2 1 1 2 2 2 4 5 6 6 6 7 8 8 9 9 10 11 11 12 12 12 12 11 11 11 11 11 11 10 10
-2 -2 -2 -3 -4 -5 -6 -6 -7 -7 -9 -8 -7 -6 -4 -3 -1 -0 1 2 2 3 3 3 3 3 3 4 6 7 7 7 7 7 8 8 8 9 9 10 11 11 11 12 11 11 11 11 11 11 10 10
-3 -3 -3 -5 -6 -6 -6 -6 -6 -6 -7 -7 -7 -6 -5 -4 -2 0 2 3 3 5 5 4 4 5 4 4 6 7 7 7 7 8 8 8 8 8 9 10 10 11 11 11 11 11 11 11 11 10 10 10
-3 -4 -5 -7 -6 -6 -6 -5 -5 -5 -4 -4 -5 -4 -4 -3 -2 -0 2 3 4 5 5 5 5 5 4 4 5 6 7 7 7 7 8 8 8 9 10 10 10 10 11 11 11 11 11 11 11 10 10 9
-4 -6 -7 -7 -6 -6 -5 -5 -5 -3 -3 -3 -3 -2 -2 -2 -2 -0 2 3 4 5 5 5 5 5 5 5 6 6 7 7 7 7 8 8 8 9 9 9 10 10 11 11 11 11 11 10 10 9 9 9
-6 -9 -9 -8 -7 -6 -5 -5 -5 -3 -3 -2 -2 -1 -1 -1 -1 -0 1 3 4 4 5 5 5 5 5 5 5 6 7 7 8 8 8 8 8 8 8 9 9 10 10 10 10 10 9 8 8 9 9 8
-9 -11 -11 -10 -9 -8 -7 -7 -6 -4 -3 -3 -2 -1 -0 0 0 0 1 3 3 4 4 4 4 5 5 5 5 5 6 7 7 8 8 7 8 8 9 9 9 9 10 9 9 8 7 7 7 8 8 8
-12 -13 -13 -13 -12 -12 -12 -11 -8 -6 -5 -4 -3 -2 -0 0 -0 -0 2 3 3 3 4 4 4 4 4 4 4 5 6 6 6 7 7 7 7 8 8 9 9 9 9 9 9 8 8 8 7 7 8 8
-13 -14 -15 -15 -15 -15 -15 -14 -12 -9 -7 -5 -4 -3 -1 -0 -0 1 2 3 3 3 4 4 4 4 4 4 4 4 5 6 6 6 7 7 7 7 8 8 8 9 9 9 9 8 8 8 8 8 8 8
-14 -15 -16 -16 -16 -16 -16 -15 -14 -13 -11 -8 -7 -4 -1 -0 0 1 2 3 3 3 3 4 4 4 3 3 3 4 4 5 5 6 6 6 6 7 7 7 8 8 8 8 8 8 8 8 8 8 7 7
-16 -17 -18 -17 -15 -15 -15 -15 -15 -14 -14 -12 -10 -6 -3 -1 -0 1 2 2 3 3 3 4 4 4 4 3 3 3 3 4 4 5 5 5 5 6 6 6 7 7 7 7 7 7 7 7 7 7 7 7
-19 -19 -19 -17 -15 -15 -15 -14 -14 -14 -14 -14 -12 -10 -7 -4 -2 -1 1 2 2 3 3 3 3 4 4 4 4 3 3 3 4 4 4 4 4 5 5 5 6 6 6 6 6 6 6 6 6 6 6 6
-21 -20 -19 -17 -15 -14 -14 -13 -13 -13 -13 -12 -12 -11 -10 -8 -6 -3 -1 -0 0 1 2 3 3 3 3 4 3 3 3 3 3 3 3 4 4 4 4 4 4 4 4 4 5 5 5 5 5 5 6 6
-22 -20 -18 -16 -15 -14 -13 -13 -12 -12 -12 -12 -11 -11 -11 -10 -8 -7 -5 -4 -2 -1 1 2 2 3 3 3 3 3 3 4 4 4 4 4 4 4 4 4 4 4 4 4 4 4 4 4 4 5 5 5
-21 -19 -17 -16 -14 -14 -13 -12 -12 -12 -12 -11 -11 -11 -11 -10 -10 -9 -8 -6 -5 -3 -1 -0 1 2 2 2 3 3 2 3 3 3 3 3 4 4 4 4 4 4 4 4 4 4 4 4 4 4 4 4
-18 -17 -16 -15 -14 -13 -12 -12 -12 -12 -12 -12 -12 -12 -12 -12 -12 -11 -11 -10 -9 -8 -6 -4 -3 -1 0 1 2 2 2 2 2 2 2 3 3 3 3 3 3 3 4 3 3 3 4 4 3 3 3 3
-16 -16 -15 -14 -13 -13 -12 -12 -12 -12 -13 -13 -13 -13 -13 -13 -13 -13 -13 -13 -13 -12 -11 -10 -9 -7 -5 -4 -2 -0 1 2 2 2 3 3 3 3 3 3 3 3 3 3 3 3 3 3 3 3 3 2
-15 -15 -14 -13 -13 -13 -13 -13 -13 -14 -14 -14 -14 -14 -14 -14 -14 -14 -14 -14 -14 -14 -14 -13 -13 -12 -11 -11 -9 -6 -4 -2 -1 -0 0 1 2 2 2 2 2 3 3 3 3 2 2 2 2 2 2 1
-15 -14 -14 -13 -13 -13 -14 -14 -14 -14 -14 -15 -15 -15 -15 -15 -15 -15 -15 -15 -15 -15 -15 -15 -15 -15 -14 -14 -14 -13 -11 -9 -8 -7 -5 -3 -2 -1 -0 0 1 2 2 1 1 1 1 1 1 1 0 0
-15 -15 -15 -14 -14 -15 -15 -15 -15 -15 -16 -16 -16 -16 -16 -17 -17 -17 -17 -16 -16 -16 -16 -16 -16 -15 -16 -16 -16 -16 -14 -13 -12 -10 -8 -7 -7 -6 -6 -5 -3 -2 -2 -3 -2 -1 -1 -0 -0 -1 -1 -1
-15 -15 -15 -15 -15 -16 -16 -16 -16 -16 -17 -17 -17 -17 -17 -18 -18 -18 -18 -17 -18 -18 -17 -17 -17 -17 -17 -16 -17 -16 -15 -14 -13 -12 -12 -10 -9 -9 -9 -8 -7 -6 -7 -6 -5 -4 -3 -1 -1 -2 -2 -1
-15 -16 -16 -16 -17 -17 -16 -17 -17 -17 -17 -17 -17 -17 -17 -18 -18 -18 -18 -18 -18 -18 -18 -18 -18 -17 -17 -17 -17 -17 -17 -16 -15 -16 -15 -14 -12 -10 -10 -9 -8 -8 -8 -8 -6 -5 -4 -2 -1 -2 -1 -2
-16 -16 -17 -17 -16 -16 -17 -17 -17 -17 -17 -17 -17 -17 -17 -17 -18 -18 -18 -18 -18 -18 -18 -17 -17 -17 -17 -17 -17 -17 -17 -17 -17 -17 -17 -15 -14 -12 -12 -11 -10 -8 -7 -7 -7 -6 -5 -3 -2 -1 -2 -4
-16 -17 -16 -17 -17 -16 -17 -17 -16 -16 -16 -17 -17 -17 -17 -17 -17 -17 -17 -17 -17 -17 -17 -17 -17 -16 -16 -16 -16 -16 -17 -16 -16 -16 -16 -15 -14 -12 -11 -11 -9 -8 -7 -7 -6 -5 -6 -5 -3 -3 -4 -5
-16 -17 -16 -16 -16 -16 -16 -16 -16 -16 -17 -17 -17 -17 -17 -17 -17 -17 -17 -17 -16 -16 -16 -16 -16 -16 -16 -16 -16 -16 -16 -16 -16 -16 -16 -15 -14 -12 -10 -9 -8 -7 -7 -7 -6 -5 -5 -5 -4 -4 -5 -5
-16 -16 -16 -16 -16 -16 -17 -17 -17 -17 -17 -17 -17 -17 -17 -17 -17 -16 -16 -16 -16 -16 -16 -16 -16 -15 -15 -15 -15 -15 -16 -16 -16 -15 -15 -14 -13 -12 -10 -9 -9 -8 -7 -7 -6 -5 -5 -5 -4 -4 -5 -5
Wind_Speed
22 22 23 24 25 25 26 26 26 25 25 24 23 22 21 21 21 21 22 22 23 24 25 25 24 24 24 24 24 24 23 23 23 24 21 20 22 22 22 22 20 19 18 18 19 19 19 19 19 18 18 18
22 22 23 24 24 25 25 26 26 26 25 24 23 22 21 20 20 20 21 22 22 23 23 24 24 24 24 24 24 24 24 22 23 24 22 20 21 23 23 23 23 23 20 19 20 20 20 20 20 19 18 18
21 22 22 24 25 25 26 26 27 27 25 24 23 22 20 18 18 20 20 20 22 22 21 22 22 23 23 23 22 22 23 22 22 23 23 22 23 24 26 25 25 26 24 22 21 21 20 22 22 21 19 18
20 21 22 24 25 26 27 27 27 27 26 24 23 21 19 17 16 18 18 18 20 20 20 20 20 21 21 21 20 20 21 21 21 22 22 24 25 26 27 27 26 28 27 25 25 23 23 24 24 22 19 18
20 21 22 24 24 26 28 28 27 26 25 23 23 21 20 18 17 16 14 15 19 19 18 18 18 19 19 18 18 17 18 19 20 21 22 23 25 27 29 29 29 29 29 28 28 27 25 24 24 22 20 19
21 22 22 24 24 25 26 26 25 24 24 22 22 21 20 18 17 16 13 13 17 17 15 16 15 17 17 16 15 15 16 17 18 19 20 21 23 25 27 30 31 32 32 31 29 27 25 26 27 25 22 20
21 22 23 25 25 25 24 23 22 22 21 21 20 20 20 18 16 15 13 13 15 14 13 13 14 15 16 14 12 13 14 14 15 16 18 19 20 21 23 25 28 30 31 29 26 24 24 25 25 23 21 18
21 22 24 25 25 25 23 21 21 20 19 18 19 19 19 18 16 14 13 13 12 13 13 12 12 13 14 14 12 12 13 12 13 14 15 16 17 18 18 18 19 22 24 23 22 21 21 22 21 20 19 16
22 23 24 24 24 23 22 21 20 18 16 17 18 18 18 18 17 14 12 12 11 11 13 12 11 12 13 14 12 11 11 11 12 12 12 13 13 13 13 11 11 13 15 17 18 19 20 22 20 18 17 15
22 22 22 22 22 21 21 21 20 18 16 16 17 17 17 16 16 14 12 12 10 10 11 12 12 12 12 12 12 11 10 11 11 11 11 11 10 10 9 9 8 9 12 14 16 17 18 19 16 14 14 15
21 20 20 20 20 20 20 20 19 18 18 17 16 16 16 15 15 15 13 12 10 9 10 11 12 13 12 12 12 11 11 10 11 11 10 9 9 9 8 8 8 8 10 12 13 13 13 12 11 11 13 15
19 18 18 18 19 19 19 20 19 19 18 17 17 16 15 14 14 15 13 12 11 9 9 10 10 11 11 12 11 11 10 10 10 10 9 8 8 8 8 7 7 7 8 9 9 10 9 10 10 10 12 14
17 16 17 17 18 18 19 19 19 18 18 17 17 16 14 13 14 14 12 11 11 10 10 10 10 11 11 12 11 10 9 10 10 9 9 8 8 8 9 9 8 7 7 7 8 9 9 9 11 11 12 13
16 16 17 17 17 18 18 18 18 18 17 17 17 15 13 13 13 12 11 11 12 11 11 10 10 11 12 12 11 9 9 9 10 10 9 8 8 7 8 9 10 9 8 8 9 9 8 10 12 12 12 11
16 17 17 17 17 18 17 17 17 17 16 16 16 14 12 12 12 10 10 10 10 11 11 11 11 11 12 12 11 9 9 9 9 10 9 9 8 8 8 8 9 10 8 9 9 10 11 10 10 11 10 9
17 17 18 17 16 17 17 17 16 16 16 15 16 14 12 11 11 11 9 8 9 10 10 10 11 10 11 13 12 10 9 9 9 10 10 10 9 8 8 6 7 8 7 7 7 8 9 8 8 8 8 9
17 17 17 16 15 16 16 16 16 16 15 15 16 15 13 12 12 11 10 9 8 8 9 10 10 10 10 11 12 11 10 10 10 10 11 11 10 10 9 7 7 7 6 6 6 6 6 6 6 6 7 8
16 16 16 15 15 15 15 15 15 15 15 15 15 15 14 13 12 12 11 11 9 8 9 10 9 9 9 9 11 11 10 10 11 11 12 12 12 12 11 11 10 10 8 7 6 7 7 7 7 6 7 7
15 14 14 14 14 14 14 14 15 15 15 15 15 15 15 14 14 13 12 12 10 9 9 9 9 9 9 9 9 10 10 9 10 11 12 12 13 13 12 12 12 12 11 10 10 9 8 9 9 9 9 9
14 13 13 13 13 13 14 14 15 15 16 15 15 15 15 15 14 14 13 13 12 11 10 10 10 9 9 9 9 9 9 8 9 10 11 11 11 12 11 11 11 11 10 10 10 10 10 10 10 10 10 10
12 12 12 12 13 13 13 14 15 15 16 15 15 15 15 15 15 14 14 14 13 13 12 12 11 10 9 10 9 9 9 8 9 9 10 11 11 11 11 12 12 11 10 10 11 11 11 10 10 10 11 11
10 10 11 12 12 13 13 14 14 15 15 15 15 15 15 15 15 15 15 15 15 15 14 14 13 12 11 11 10 10 10 10 9 10 10 11 11 11 12 13 13 13 12 12 12 12 11 11 11 11 11 11
10 10 11 11 12 12 12 13 13 14 14 15 15 15 15 15 15 15 15 15 15 15 15 15 15 14 13 13 12 11 11 10 9 9 10 10 10 10 11 11 12 12 12 12 12 12 11 10 10 9 9 10
9 9 9 10 10 11 11 12 13 14 14 14 14 15 15 15 16 15 15 15 15 15 15 15 15 15 15 14 14 13 12 12 12 12 12 11 11 10 9 9 10 11 11 11 11 10 10 9 9 10 10 10
8 8 9 9 10 10 11 11 12 13 14 14 14 15 15 15 16 15 15 15 15 15 15 15 15 15 15 15 15 14 14 14 14 14 13 13 12 12 11 11 10 10 11 11 10 10 9 8 10 11 11 9
7 8 8 8 9 9 10 11 12 12 13 14 14 14 15 15 15 15 15 15 15 16 15 15 15 15 15 15 15 15 14 14 14 14 13 13 12 13 14 14 13 13 12 12 12 10 8 7 9 11 9 7
7 7 8 8 9 9 10 10 11 12 13 13 14 14 14 14 15 15 15 15 15 15 15 15 15 15 15 15 15 14 14 13 13 14 14 14 13 12 13 13 14 14 14 14 12 9 7 5 7 8 6 10
7 7 8 8 9 9 9 10 11 12 12 13 13 13 13 14 14 15 15 15 15 15 15 15 14 14 14 14 14 14 13 13 13 13 13 13 13 12 12 12 13 14 14 14 13 11 8 4 4 4 8 15
7 7 8 8 9 9 10 11 11 11 12 12 12 13 13 14 14 15 15 15 15 15 15 14 14 15 14 14 14 14 13 13 13 13 12 12 12 11 12 12 12 12 12 13 13 11 9 5 4 7 13 15
7 8 9 9 10 11 12 12 11 12 12 13 13 13 14 14 15 15 15 15 15 15 15 15 15 15 15 15 15 15 15 14 14 13 13 13 12 12 11 11 11 10 11 12 12 11 8 5 5 10 14 12
8 9 9 10 10 11 12 12 13 13 14 14 15 15 15 15 15 15 15 15 16 15 16 16 16 16 16 15 15 15 15 14 14 14 14 13 13 12 11 11 11 10 10 11 11 10 8 6 7 10 12 11
Wind_Direction
317 316 316 316 317 318 319 320 321 322 322 320 318 315 310 303 298 295 293 293 292 294 296 297 298 297 296 295 292 289 287 283 279 277 272 266 260 259 262 263 265 264 261 262 263 265 267 270 272 271 271 272
316 316 315 314 316 318 319 321 322 323 322 320 319 318 315 310 305 299 296 295 293 294 295 296 298 297 297 297 295 293 290 285 280 276 268 263 261 259 263 264 264 261 259 262 264 264 265 266 268 268 267 270
313 313 314 314 316 318 319 321 322 322 320 319 318 318 318 315 309 303 301 300 297 296 296 296 296 296 297 297 296 294 291 287 282 278 268 262 262 261 261 261 261 261 258 260 265 266 265 266 267 267 266 270
309 311 314 314 317 319 319 320 320 319 317 316 316 317 318 314 310 306 307 307 300 297 297 297 296 296 296 296 296 293 290 286 283 281 274 266 262 262 262 262 264 265 264 261 260 259 262 264 263 266 269 274
308 312 315 313 316 317 316 316 316 315 313 312 312 314 315 314 312 311 312 308 299 299 300 299 299 298 296 296 296 294 291 286 282 280 279 274 267 263 262 264 266 269 269 265 263 261 264 266 263 265 267 272
309 314 314 311 313 312 311 312 312 312 310 309 310 311 313 314 314 313 312 306 301 304 306 302 301 300 299 299 299 299 295 290 285 280 278 278 275 270 266 265 265 267 269 270 272 269 266 267 265 261 258 266
310 313 311 311 311 310 310 310 310 310 310 309 309 311 313 314 314 313 312 311 308 310 311 306 305 302 301 301 302 302 298 296 293 288 283 280 280 278 276 272 267 267 272 277 277 271 264 261 259 256 260 267
310 312 311 311 310 310 310 310 312 313 312 311 310 312 313 316 317 314 314 316 317 321 318 316 316 310 302 300 302 304 303 303 300 296 292 287 285 284 284 281 275 271 273 277 276 273 267 261 260 263 270 267
312 313 312 311 311 312 313 314 316 316 316 313 311 314 317 322 322 316 315 316 324 335 333 333 330 321 313 309 309 310 311 312 308 306 302 297 295 291 288 284 278 272 270 271 269 269 266 263 267 268 264 257
313 314 313 314 315 316 318 319 320 320 321 317 315 318 321 327 328 322 318 318 328 340 341 344 340 337 335 331 325 321 323 324 321 322 320 316 311 306 300 292 279 270 266 265 263 261 260 261 264 261 257 256
314 317 318 320 322 324 324 324 324 325 326 324 322 323 325 330 332 329 324 322 328 334 337 341 345 350 349 345 342 339 338 337 336 338 338 335 328 320 311 296 278 267 264 261 258 256 256 257 257 258 262 266
318 322 325 328 329 330 329 329 329 329 330 330 328 327 329 332 330 331 332 330 331 335 336 336 341 347 348 346 346 349 349 345 347 346 343 339 330 319 307 290 271 263 261 251 244 248 252 257 261 263 270 277
321 326 330 332 333 334 333 332 333 332 333 333 332 331 333 335 333 336 342 342 341 342 339 337 337 336 339 339 336 343 351 348 346 344 340 335 327 317 307 297 286 274 266 253 245 250 253 257 266 273 278 284
324 328 331 333 333 333 332 332 334 333 335 335 334 335 339 344 343 344 347 346 345 346 344 343 343 341 341 341 340 346 351 349 344 340 341 336 326 315 302 293 292 286 277 274 274 279 276 269 270 275 281 286
326 329 330 332 332 331 331 333 336 336 337 337 336 338 347 352 349 345 342 344 346 345 346 346 346 346 346 347 353 358 353 350 348 343 346 346 335 320 305 293 292 289 283 279 280 284 283 278 275 277 282 288
328 329 329 332 334 333 334 337 340 341 343 343 343 345 350 353 350 346 341 343 347 345 346 344 344 345 345 349 353 357 357 351 348 346 347 349 347 338 329 318 304 298 296 291 283 279 278 279 283 285 289 292
329 330 331 335 338 339 339 344 346 348 352 353 352 353 354 355 353 353 350 345 343 345 345 340 343 345 343 347 347 348 354 351 347 347 348 349 351 351 349 343 331 323 316 311 306 299 298 303 307 304 300 298
334 336 338 340 342 344 345 350 353 355 0 2 1 2 3 3 360 359 357 352 347 347 346 342 348 350 343 343 343 343 349 350 347 347 351 351 349 350 352 352 348 348 345 339 336 325 320 320 318 320 316 311
340 342 345 347 348 351 353 356 360 1 5 7 7 7 9 9 7 6 4 359 356 352 349 347 351 353 347 345 344 345 348 346 342 345 348 346 344 344 346 350 348 352 354 350 349 344 337 331 325 330 332 332
347 349 351 354 355 357 359 2 4 6 6 7 8 8 9 9 8 7 5 2 359 356 352 349 349 351 349 345 344 345 347 342 336 340 340 335 335 336 339 343 341 344 348 346 346 344 339 336 334 334 336 337
355 357 359 1 3 4 6 7 8 9 7 8 8 8 10 9 9 7 6 4 1 359 357 354 353 353 349 344 342 340 339 336 332 334 332 328 330 333 337 337 335 336 339 338 336 334 332 333 333 330 330 332
2 5 8 9 10 9 10 10 10 10 8 8 8 9 10 9 10 9 9 8 6 5 3 360 359 358 355 351 349 344 340 339 337 335 332 331 332 334 335 334 333 334 335 334 331 329 330 332 330 330 332 333
7 10 14 13 11 9 9 10 9 9 7 7 6 7 9 8 9 9 9 9 9 9 7 5 4 3 2 360 359 355 351 350 348 345 343 343 341 338 337 333 329 328 327 326 326 330 334 336 337 342 347 343
9 12 15 13 9 6 7 8 7 7 6 5 5 6 7 6 6 7 8 8 8 9 8 7 6 6 5 4 3 360 359 1 360 359 357 353 350 346 341 335 329 328 328 327 331 338 342 345 345 348 349 346
7 9 12 11 8 5 6 7 7 7 5 5 6 6 6 5 6 7 7 7 8 8 7 6 6 6 6 5 4 2 2 3 1 0 0 357 355 352 348 346 346 345 341 342 349 351 353 354 346 343 345 348
6 10 12 11 9 6 6 6 7 6 5 7 7 6 5 4 5 6 6 6 6 6 5 5 5 4 5 4 4 4 3 3 359 358 358 357 358 357 354 353 354 355 356 1 5 2 3 360 340 339 346 347
8 13 12 8 7 7 6 5 5 6 6 7 6 4 3 2 3 3 3 4 3 3 3 3 3 2 3 3 2 3 2 1 359 358 357 357 358 359 357 354 354 358 1 7 12 7 6 360 339 337 331 330
9 12 12 8 7 5 2 3 5 5 6 4 2 2 1 360 0 0 1 1 0 1 0 2 2 1 2 3 2 3 2 1 359 359 360 358 358 359 358 356 359 2 0 6 14 10 5 2 354 329 307 325
4 8 11 7 4 360 358 3 5 3 1 359 359 359 359 359 359 359 359 359 359 360 360 1 2 2 3 4 4 4 3 4 2 1 1 1 1 2 2 360 3 4 359 5 14 13 11 8 349 314 318 332
360 4 8 6 2 359 359 1 359 357 356 356 357 358 359 359 359 359 358 358 358 359 360 1 1 2 3 3 4 3 4 4 2 1 1 2 3 1 2 359 358 360 358 2 8 10 14 7 321 310 324 338
359 1 5 7 4 0 358 356 355 356 356 356 357 358 359 359 359 359 358 358 358 359 360 0 1 1 1 2 3 2 3 3 1 2 1 1 1 359 0 356 352 354 354 357 1 358 356 348 321 317 331 338
Height
1558 1558 1556 1555 1554 1553 1551 1550 1549 1547 1546 1545 1543 1543 1542 1541 1540 1539 1539 1538 1537 1536 1535 1534 1534 1533 1532 1532 1531 1530 1530 1529 1529 1528 1528 1528 1528 1528 1528 1528 1528 1529 1529 1528 1528 1528 1528 1528 1528 1528 1528 1527
1557 1556 1555 1554 1553 1551 1550 1548 1547 1545 1544 1543 1542 1541 1540 1539 1538 1537 1536 1535 1535 1534 1533 1532 1531 1531 1530 1530 1529 1528 1527 1527 1527 1526 1526 1526 1526 1525 1526 1526 1526 1526 1526 1527 1526 1526 1526 1526 1526 1525 1525 1525
1555 1555 1554 1552 1551 1550 1548 1547 1545 1544 1543 1541 1540 1539 1538 1537 1536 1535 1534 1533 1532 1532 1531 1530 1530 1529 1528 1527 1527 1526 1525 1525 1524 1524 1524 1524 1524 1523 1523 1523 1522 1522 1523 1524 1524 1524 1524 1524 1524 1524 1523 1523
1554 1554 1552 1551 1550 1548 1546 1545 1544 1543 1541 1540 1539 1538 1537 1535 1534 1533 1532 1532 1530 1530 1529 1528 1528 1527 1526 1525 1525 1524 1523 1523 1522 1522 1522 1522 1522 1521 1521 1520 1520 1520 1520 1522 1522 1522 1522 1522 1522 1522 1522 1522
1553 1553 1551 1550 1548 1547 1545 1544 1543 1541 1540 1538 1537 1536 1535 1533 1532 1531 1531 1530 1528 1528 1527 1526 1526 1525 1524 1524 1523 1522 1521 1521 1520 1520 1519 1519 1519 1519 1518 1518 1518 1518 1518 1519 1519 1520 1520 1520 1520 1520 1520 1520
1552 1552 1550 1548 1547 1546 1544 1542 1541 1540 1538 1537 1535 1534 1533 1532 1531 1530 1529 1528 1527 1526 1526 1525 1524 1523 1522 1522 1521 1520 1519 1519 1518 1518 1517 1517 1516 1516 1516 1516 1516 1516 1516 1516 1517 1517 1518 1518 1518 1517 1517 1518
1551 1551 1549 1547 1546 1544 1543 1541 1539 1538 1536 1535 1534 1533 1532 1530 1529 1528 1527 1526 1526 1525 1524 1523 1522 1521 1520 1520 1519 1518 1518 1517 1517 1516 1516 1515 1514 1514 1514 1513 1513 1514 1514 1514 1514 1515 1515 1515 1515 1515 1515 1516
1550 1549 1548 1546 1544 1543 1541 1540 1538 1536 1535 1534 1532 1531 1530 1529 1528 1527 1526 1525 1525 1524 1523 1522 1522 1521 1519 1518 1518 1517 1516 1516 1515 1514 1514 1513 1513 1512 1511 1511 1511 1512 1512 1512 1512 1512 1513 1513 1513 1514 1514 1514
1549 1548 1546 1545 1543 1541 1540 1538 1537 1535 1534 1532 1531 1530 1529 1527 1526 1525 1525 1524 1524 1523 1522 1522 1521 1519 1518 1517 1516 1516 1515 1514 1514 1513 1512 1512 1511 1511 1510 1510 1510 1510 1510 1510 1510 1510 1511 1511 1511 1512 1512 1512
1548 1547 1545 1544 1542 1540 1539 1537 1536 1534 1533 1532 1530 1529 1528 1527 1525 1524 1523 1523 1522 1522 1522 1521 1520 1519 1518 1517 1516 1515 1514 1513 1513 1512 1511 1511 1510 1510 1509 1509 1510 1509 1509 1509 1509 1509 1509 1509 1510 1510 1510 1511
1547 1546 1544 1543 1541 1540 1538 1536 1535 1534 1532 1531 1530 1529 1527 1526 1525 1523 1522 1521 1521 1521 1520 1520 1519 1518 1518 1517 1516 1514 1514 1513 1512 1511 1511 1510 1510 1509 1509 1509 1509 1508 1508 1508 1508 1508 1508 1508 1508 1509 1509 1510
1547 1545 1544 1542 1541 1539 1537 1536 1534 1533 1532 1531 1529 1528 1527 1526 1524 1523 1522 1521 1520 1519 1519 1519 1518 1518 1517 1516 1516 1515 1514 1513 1512 1511 1510 1510 1510 1509 1509 1508 1508 1507 1507 1507 1507 1507 1507 1507 1507 1508 1508 1508
1546 1545 1543 1542 1540 1539 1537 1535 1534 1532 1531 1530 1529 1528 1527 1526 1524 1523 1523 1521 1520 1519 1518 1517 1517 1517 1516 1516 1515 1514 1514 1513 1512 1511 1510 1510 1509 1509 1508 1508 1507 1507 1506 1506 1506 1506 1506 1506 1506 1507 1507 1507
1545 1544 1543 1541 1540 1538 1537 1535 1534 1532 1531 1530 1528 1527 1526 1525 1524 1523 1522 1522 1520 1519 1518 1517 1516 1516 1515 1515 1514 1514 1513 1513 1512 1511 1511 1510 1509 1508 1508 1507 1507 1506 1506 1505 1505 1505 1505 1505 1506 1506 1506 1506
1545 1544 1542 1541 1539 1538 1536 1535 1533 1532 1531 1529 1528 1527 1526 1525 1525 1524 1522 1522 1521 1520 1519 1517 1516 1515 1514 1514 1513 1513 1513 1512 1512 1511 1510 1509 1508 1508 1507 1507 1506 1505 1505 1505 1504 1504 1504 1504 1505 1505 1505 1505
1544 1543 1542 1540 1539 1537 1536 1535 1533 1532 1531 1529 1528 1527 1526 1525 1525 1524 1523 1521 1521 1520 1519 1518 1516 1515 1514 1514 1513 1512 1512 1512 1512 1511 1510 1509 1508 1507 1507 1506 1505 1505 1504 1504 1504 1503 1503 1504 1504 1504 1504 1504
1544 1542 1541 1540 1539 1537 1536 1535 1533 1532 1531 1529 1528 1527 1526 1525 1524 1524 1523 1522 1521 1520 1518 1517 1516 1515 1514 1514 1513 1512 1512 1512 1511 1510 1510 1509 1508 1507 1507 1506 1505 1505 1504 1504 1503 1503 1503 1503 1503 1502 1502 1502
1543 1542 1541 1540 1539 1537 1536 1535 1534 1532 1531 1530 1529 1527 1526 1525 1524 1523 1523 1522 1521 1520 1518 1517 1516 1515 1514 1514 1513 1512 1511 1511 1511 1510 1510 1509 1508 1508 1507 1506 1505 1504 1504 1504 1503 1503 1503 1503 1502 1502 1502 1502
1543 1542 1541 1540 1539 1538 1536 1535 1534 1533 1532 1531 1529 1528 1527 1526 1525 1524 1523 1522 1521 1520 1519 1517 1516 1515 1514 1514 1513 1512 1511 1511 1510 1510 1510 1509 1508 1508 1507 1506 1505 1505 1504 1504 1504 1503 1503 1503 1502 1502 1502 1501
1543 1542 1541 1540 1539 1538 1537 1536 1534 1533 1532 1531 1530 1529 1528 1526 1525 1524 1523 1522 1521 1520 1519 1518 1516 1515 1514 1513 1512 1512 1511 1510 1510 1509 1509 1508 1508 1507 1506 1506 1505 1505 1504 1504 1504 1503 1503 1503 1502 1502 1501 1501
1543 1542 1541 1540 1540 1538 1537 1536 1535 1534 1533 1531 1530 1529 1528 1527 1526 1525 1523 1522 1521 1520 1519 1518 1516 1515 1514 1513 1512 1511 1510 1510 1509 1509 1508 1508 1507 1506 1506 1505 1505 1504 1504 1504 1503 1503 1503 1502 1502 1501 1501 1500
1543 1542 1542 1541 1540 1539 1538 1537 1535 1534 1533 1532 1531 1530 1529 1527 1526 1525 1524 1523 1521 1520 1519 1518 1516 1515 1514 1512 1511 1511 1510 1509 1508 1508 1507 1507 1506 1506 1505 1505 1504 1504 1503 1503 1503 1502 1502 1501 1501 1500 1500 1500
1543 1542 1542 1541 1540 1539 1538 1537 1536 1535 1534 1532 1531 1530 1529 1528 1527 1525 1524 1523 1522 1521 1520 1518 1517 1515 1514 1512 1511 1510 1509 1509 1508 1507 1507 1506 1505 1505 1505 1504 1504 1503 1503 1502 1502 1501 1501 1500 1500 1500 1499 1499
1543 1543 1542 1542 1541 1540 1539 1538 1536 1535 1534 1533 1532 1530 1529 1528 1527 1526 1525 1523 1522 1521 1520 1519 1518 1516 1514 1513 1511 1510 1509 1508 1507 1506 1506 1505 1505 1504 1504 1503 1503 1502 1502 1501 1501 1500 1500 1500 1499 1499 1499 1498
1543 1543 1542 1542 1541 1540 1539 1538 1537 1536 1535 1533 1532 1531 1530 1529 1527 1526 1525 1524 1523 1522 1521 1519 1518 1517 1515 1513 1512 1510 1509 1508 1507 1506 1505 1504 1504 1503 1502 1502 1502 1501 1501 1500 1500 1500 1499 1499 1499 1498 1498 1498
1544 1543 1543 1542 1541 1541 1540 1538 1537 1536 1535 1534 1533 1532 1530 1529 1528 1527 1526 1524 1523 1522 1521 1520 1519 1517 1516 1514 1512 1511 1509 1508 1507 1506 1505 1504 1503 1503 1501 1501 1500 1500 1500 1499 1499 1499 1498 1498 1498 1497 1497 1497
1544 1543 1543 1543 1542 1541 1540 1539 1538 1536 1535 1534 1533 1532 1531 1530 1528 1527 1526 1525 1523 1522 1521 1520 1519 1517 1516 1514 1513 1511 1510 1508 1507 1506 1505 1504 1503 1502 1501 1501 1500 1499 1499 1499 1498 1498 1498 1498 1497 1497 1496 1496
1544 1544 1543 1543 1542 1541 1540 1539 1538 1537 1536 1534 1533 1532 1531 1530 1529 1527 1526 1525 1524 1523 1521 1520 1519 1518 1516 1515 1513 1512 1510 1509 1507 1506 1505 1504 1503 1502 1502 1501 1500 1499 1499 1499 1498 1498 1497 1497 1497 1497 1496 1496
1545 1544 1543 1543 1542 1542 1540 1539 1538 1537 1536 1535 1534 1532 1531 1530 1528 1527 1526 1525 1524 1523 1521 1520 1519 1518 1516 1515 1513 1512 1510 1509 1507 1506 1505 1504 1503 1502 1501 1501 1500 1500 1499 1499 1498 1498 1498 1497 1497 1497 1496 1495
1545 1544 1543 1543 1542 1541 1540 1539 1539 1537 1536 1535 1534 1532 1531 1530 1528 1527 1526 1525 1524 1522 1521 1520 1519 1517 1516 1515 1513 1512 1510 1509 1507 1506 1505 1504 1503 1502 1501 1501 1500 1500 1499 1499 1499 1498 1498 1498 1498 1497 1495 1495
1545 1545 1544 1543 1542 1541 1540 1539 1538 1537 1536 1535 1533 1532 1531 1529 1528 1527 1526 1524 1523 1522 1521 1520 1518 1517 1516 1514 1513 1512 1510 1509 1507 1506 1505 1503 1502 1502 1501 1501 1500 1500 1499 1499 1499 1498 1498 1498 1498 1496 1495 1495